User: anonymous   Login
Location: Cranbrook Institute of Science
(42.5830°N, 83.2450°W)
Time: 12:45:33
(UTC-04:00)
Language:

CZ-4B R/B - Orbit

View from above orbital plane
View from above orbital plane
View from above satellite
View from above satellite

Ground track
Ground track

The orbit data is extracted from the following two-line orbital elements,

1 29093U 06015B   14297.41283997  .00016971  00000-0  58833-3 0  4349
2 29093 097.5137 017.4473 0088096 165.9977 324.8067 15.26178914469270
Epoch (UTC): 24 October 2014 09:54:29
Eccentricity: 0.0088096
inclination: 97.5137°
perigee height: 427 km
apogee height: 548 km
right ascension of ascending node: 17.4473°
argument of perigee: 165.9977°
revolutions per day: 15.26178914
mean anomaly at epoch: 324.8067°
orbit number at epoch: 46927

The dashed part of the orbit path shows where the satellite is in the earth's shadow,  

DLR